Previsão horária em Almalybak

Hoje, 16 Junho, Quarta-feira

Tempo Temperatura Precipitação Vento Pressão Humidade
00:00 +19°C° 0 mm 1 m/s 689 mmHg 45%
01:00 +19°C° 0 mm 1 m/s 689 mmHg 45%
02:00 +19°C° 0 mm 1 m/s 689 mmHg 45%
03:00 +18°C° 0 mm 2 m/s 689 mmHg 45%
04:00 +18°C° 0 mm 2 m/s 690 mmHg 45%
05:00 +18°C° 0 mm 2 m/s 690 mmHg 46%
06:00 +19°C° 0 mm 2 m/s 690 mmHg 43%
07:00 +21°C° 0 mm 2 m/s 691 mmHg 41%
08:00 +24°C° 0 mm 2 m/s 691 mmHg 38%
09:00 +24°C° 0 mm 1 m/s 691 mmHg 37%
10:00 +25°C° 0 mm 1 m/s 691 mmHg 36%
11:00 +26°C° 0 mm 1 m/s 691 mmHg 35%
12:00 +26°C° 0.2 mm 1 m/s 691 mmHg 37%
13:00 +26°C° 0.2 mm 2 m/s 691 mmHg 39%
14:00 +26°C° 0.2 mm 2 m/s 691 mmHg 41%
15:00 +26°C° 0.2 mm 2 m/s 691 mmHg 43%
16:00 +26°C° 0.2 mm 2 m/s 690 mmHg 45%
17:00 +25°C° 0.2 mm 2 m/s 690 mmHg 46%
18:00 +24°C° 0.2 mm 2 m/s 690 mmHg 48%
19:00 +22°C° 0.2 mm 3 m/s 691 mmHg 49%
20:00 +21°C° 0.2 mm 3 m/s 691 mmHg 50%
21:00 +21°C° 0 mm 3 m/s 690 mmHg 50%
22:00 +20°C° 0 mm 3 m/s 690 mmHg 50%
23:00 +20°C° 0 mm 3 m/s 690 mmHg 50%

Amanhã, 17 Junho, Quinta-feira

Tempo Temperatura Precipitação Vento Pressão Humidade
00:00 +20°C° 0 mm 3 m/s 690 mmHg 49%
01:00 +20°C° 0 mm 3 m/s 690 mmHg 49%
02:00 +19°C° 0 mm 3 m/s 690 mmHg 49%
03:00 +19°C° 0 mm 3 m/s 690 mmHg 49%
04:00 +19°C° 0 mm 3 m/s 690 mmHg 49%
05:00 +19°C° 0 mm 3 m/s 690 mmHg 49%
06:00 +21°C° 0 mm 2 m/s 690 mmHg 46%
07:00 +24°C° 0 mm 2 m/s 690 mmHg 42%
08:00 +26°C° 0 mm 2 m/s 691 mmHg 38%
09:00 +26°C° 0.1 mm 2 m/s 691 mmHg 37%
10:00 +27°C° 0.1 mm 1 m/s 690 mmHg 35%
11:00 +28°C° 0.1 mm 1 m/s 690 mmHg 34%
12:00 +29°C° 0.2 mm 1 m/s 690 mmHg 33%
13:00 +29°C° 0.2 mm 1 m/s 690 mmHg 33%
14:00 +30°C° 0.2 mm 1 m/s 690 mmHg 33%
15:00 +30°C° 0.2 mm 2 m/s 689 mmHg 33%
16:00 +30°C° 0.2 mm 2 m/s 689 mmHg 33%
17:00 +29°C° 0.2 mm 2 m/s 689 mmHg 33%
18:00 +28°C° 0.1 mm 2 m/s 689 mmHg 36%
19:00 +26°C° 0.1 mm 2 m/s 690 mmHg 39%
20:00 +25°C° 0.1 mm 3 m/s 690 mmHg 43%
21:00 +24°C° 0 mm 3 m/s 690 mmHg 44%
22:00 +22°C° 0 mm 3 m/s 690 mmHg 45%
23:00 +22°C° 0 mm 3 m/s 690 mmHg 46%

Depois de amanhã, 18 Junho, Sexta-feira

Tempo Temperatura Precipitação Vento Pressão Humidade
00:00 +21°C° 0 mm 3 m/s 689 mmHg 47%
01:00 +21°C° 0 mm 3 m/s 689 mmHg 48%
02:00 +20°C° 0 mm 3 m/s 689 mmHg 49%
03:00 +20°C° 0 mm 3 m/s 689 mmHg 50%
04:00 +20°C° 0 mm 3 m/s 689 mmHg 50%
05:00 +20°C° 0 mm 3 m/s 689 mmHg 51%
06:00 +23°C° 0.1 mm 2 m/s 689 mmHg 46%
07:00 +25°C° 0.1 mm 2 m/s 690 mmHg 41%
08:00 +27°C° 0.1 mm 2 m/s 690 mmHg 37%
09:00 +28°C° 0.2 mm 1 m/s 690 mmHg 35%
10:00 +29°C° 0.2 mm 1 m/s 690 mmHg 33%
11:00 +30°C° 0.2 mm 1 m/s 690 mmHg 32%
12:00 +30°C° 0.3 mm 2 m/s 689 mmHg 31%
13:00 +31°C° 0.3 mm 2 m/s 689 mmHg 30%
14:00 +31°C° 0.3 mm 2 m/s 689 mmHg 29%
15:00 +31°C° 0.2 mm 2 m/s 689 mmHg 27%
16:00 +31°C° 0.2 mm 2 m/s 689 mmHg 26%
17:00 +32°C° 0.2 mm 2 m/s 689 mmHg 25%
18:00 +29°C° 0 mm 2 m/s 689 mmHg 28%
19:00 +27°C° 0 mm 2 m/s 689 mmHg 31%
20:00 +24°C° 0 mm 3 m/s 689 mmHg 34%
21:00 +24°C° 0 mm 3 m/s 689 mmHg 34%
22:00 +22°C° 0 mm 3 m/s 689 mmHg 34%
23:00 +22°C° 0 mm 3 m/s 689 mmHg 34%

19 Junho, Sábado

Tempo Temperatura Precipitação Vento Pressão Humidade
00:00 +22°C° 0 mm 3 m/s 688 mmHg 34%
01:00 +21°C° 0 mm 3 m/s 688 mmHg 33%
02:00 +21°C° 0 mm 3 m/s 688 mmHg 33%
03:00 +21°C° 0 mm 3 m/s 688 mmHg 33%
04:00 +21°C° 0 mm 3 m/s 688 mmHg 34%
05:00 +21°C° 0 mm 3 m/s 688 mmHg 35%
06:00 +24°C° 0 mm 2 m/s 688 mmHg 31%
07:00 +27°C° 0 mm 2 m/s 688 mmHg 27%
08:00 +29°C° 0 mm 1 m/s 688 mmHg 23%
09:00 +31°C° 0 mm 2 m/s 688 mmHg 22%
10:00 +32°C° 0 mm 2 m/s 688 mmHg 21%
11:00 +34°C° 0 mm 2 m/s 688 mmHg 20%
12:00 +31°C° 0.2 mm 3 m/s 687 mmHg 27%
13:00 +29°C° 0.2 mm 4 m/s 687 mmHg 35%
14:00 +27°C° 0.2 mm 5 m/s 687 mmHg 43%
15:00 +26°C° 0.4 mm 5 m/s 687 mmHg 47%
16:00 +25°C° 0.4 mm 5 m/s 687 mmHg 52%
17:00 +23°C° 0.4 mm 5 m/s 687 mmHg 56%
18:00 +22°C° 0.1 mm 4 m/s 688 mmHg 61%
19:00 +21°C° 0.1 mm 4 m/s 689 mmHg 65%
20:00 +19°C° 0.1 mm 3 m/s 689 mmHg 70%
21:00 +19°C° 0.2 mm 2 m/s 689 mmHg 71%
22:00 +20°C° 0.2 mm 1 m/s 689 mmHg 73%
23:00 +20°C° 0.2 mm 1 m/s 689 mmHg 75%

20 Junho, Domingo

Tempo Temperatura Precipitação Vento Pressão Humidade
00:00 +19°C° 0.1 mm 1 m/s 689 mmHg 79%
01:00 +18°C° 0.1 mm 1 m/s 688 mmHg 84%
02:00 +17°C° 0.1 mm 2 m/s 688 mmHg 89%
03:00 +16°C° 0.1 mm 2 m/s 688 mmHg 87%
04:00 +16°C° 0.1 mm 2 m/s 689 mmHg 84%
05:00 +16°C° 0.1 mm 2 m/s 689 mmHg 81%
06:00 +16°C° 0 mm 1 m/s 689 mmHg 77%
07:00 +16°C° 0 mm 1 m/s 689 mmHg 72%
08:00 +16°C° 0 mm 1 m/s 689 mmHg 68%
09:00 +16°C° 0.2 mm 1 m/s 689 mmHg 65%
10:00 +18°C° 0.2 mm 1 m/s 689 mmHg 63%
11:00 +17°C° 0.2 mm 2 m/s 689 mmHg 61%
12:00 +18°C° 0.8 mm 1 m/s 689 mmHg 63%
13:00 +16°C° 0.8 mm 1 m/s 689 mmHg 65%
14:00 +16°C° 0.8 mm 1 m/s 689 mmHg 67%
15:00 +15°C° 1.9 mm 1 m/s 689 mmHg 73%
16:00 +15°C° 1.9 mm 1 m/s 690 mmHg 80%
17:00 +14°C° 1.9 mm 2 m/s 690 mmHg 86%
18:00 +15°C° 0.3 mm 2 m/s 690 mmHg 84%
19:00 +15°C° 0.3 mm 2 m/s 690 mmHg 82%
20:00 +15°C° 0.3 mm 2 m/s 690 mmHg 80%
21:00 +15°C° 0.1 mm 2 m/s 690 mmHg 79%
22:00 +14°C° 0.1 mm 2 m/s 690 mmHg 78%
23:00 +14°C° 0.1 mm 2 m/s 690 mmHg 77%

21 Junho, Segunda-feira

Tempo Temperatura Precipitação Vento Pressão Humidade
00:00 +14°C° 0.5 mm 2 m/s 690 mmHg 75%
01:00 +13°C° 0.5 mm 3 m/s 689 mmHg 74%
02:00 +12°C° 0.5 mm 3 m/s 689 mmHg 73%
03:00 +12°C° 0 mm 3 m/s 689 mmHg 71%
04:00 +12°C° 0 mm 3 m/s 690 mmHg 68%
05:00 +13°C° 0 mm 3 m/s 690 mmHg 66%
06:00 +15°C° 0 mm 2 m/s 690 mmHg 60%
07:00 +17°C° 0 mm 2 m/s 691 mmHg 55%
08:00 +19°C° 0 mm 2 m/s 691 mmHg 49%
09:00 +20°C° 0 mm 2 m/s 691 mmHg 47%
10:00 +21°C° 0 mm 3 m/s 692 mmHg 45%
11:00 +22°C° 0 mm 3 m/s 692 mmHg 43%
12:00 +24°C° 0 mm 3 m/s 692 mmHg 42%
13:00 +24°C° 0 mm 3 m/s 692 mmHg 42%
14:00 +25°C° 0 mm 3 m/s 692 mmHg 41%
15:00 +25°C° 0 mm 3 m/s 692 mmHg 41%
16:00 +24°C° 0 mm 2 m/s 692 mmHg 41%
17:00 +24°C° 0 mm 2 m/s 692 mmHg 42%
18:00 +23°C° 0 mm 2 m/s 692 mmHg 44%
19:00 +21°C° 0 mm 2 m/s 693 mmHg 46%
20:00 +20°C° 0 mm 2 m/s 693 mmHg 48%
21:00 +19°C° 0 mm 2 m/s 693 mmHg 49%
22:00 +18°C° 0 mm 2 m/s 693 mmHg 50%
23:00 +17°C° 0 mm 2 m/s 693 mmHg 50%
Mostrar mais